TimeEDT,TemperatureF,Dew PointF,Humidity,Sea Level PressureIn,VisibilityMPH,Wind Direction,Wind SpeedMPH,Gust SpeedMPH,PrecipitationIn,Events,Conditions,WindDirDegrees,DateUTC
12:15 AM,50.0,50.0,100,30.25,3.0,Calm,Calm,-,N/A,,Clear,0,2012-10-12 04:15:00
12:35 AM,48.2,48.2,100,30.24,5.0,Calm,Calm,-,N/A,,Clear,0,2012-10-12 04:35:00
12:55 AM,50.0,50.0,100,30.24,5.0,Calm,Calm,-,N/A,,Clear,0,2012-10-12 04:55:00
1:15 AM,48.2,48.2,100,30.24,5.0,Calm,Calm,-,N/A,,Clear,0,2012-10-12 05:15:00
1:35 AM,48.2,48.2,100,30.23,5.0,Calm,Calm,-,N/A,,Clear,0,2012-10-12 05:35:00
1:55 AM,48.2,48.2,100,30.22,5.0,Calm,Calm,-,N/A,,Clear,0,2012-10-12 05:55:00
2:15 AM,48.2,48.2,100,30.22,5.0,Calm,Calm,-,N/A,,Clear,0,2012-10-12 06:15:00
2:35 AM,46.4,46.4,100,30.21,4.0,Calm,Calm,-,N/A,,Clear,0,2012-10-12 06:35:00
2:55 AM,46.4,46.4,100,30.21,7.0,Calm,Calm,-,N/A,,Clear,0,2012-10-12 06:55:00
3:15 AM,46.4,46.4,100,30.20,4.0,Calm,Calm,-,N/A,,Clear,0,2012-10-12 07:15:00
3:35 AM,46.4,46.4,100,30.21,5.0,Calm,Calm,-,N/A,,Clear,0,2012-10-12 07:35:00
3:55 AM,46.4,46.4,100,30.20,4.0,Calm,Calm,-,N/A,,Clear,0,2012-10-12 07:55:00
4:15 AM,46.4,46.4,100,30.20,5.0,Calm,Calm,-,N/A,,Clear,0,2012-10-12 08:15:00
4:35 AM,46.4,46.4,100,30.20,5.0,Calm,Calm,-,N/A,,Clear,0,2012-10-12 08:35:00
4:55 AM,46.4,46.4,100,30.20,5.0,Calm,Calm,-,N/A,,Clear,0,2012-10-12 08:55:00
5:15 AM,44.6,44.6,100,30.20,5.0,Calm,Calm,-,N/A,,Clear,0,2012-10-12 09:15:00
5:35 AM,44.6,44.6,100,30.20,5.0,Calm,Calm,-,N/A,,Clear,0,2012-10-12 09:35:00
5:55 AM,44.6,44.6,100,30.20,7.0,Calm,Calm,-,N/A,,Clear,0,2012-10-12 09:55:00
6:15 AM,44.6,44.6,100,30.20,5.0,Calm,Calm,-,N/A,,Clear,0,2012-10-12 10:15:00
6:35 AM,44.6,44.6,100,30.21,5.0,Calm,Calm,-,N/A,,Clear,0,2012-10-12 10:35:00
6:55 AM,44.6,44.6,100,30.21,5.0,Calm,Calm,-,N/A,,Clear,0,2012-10-12 10:55:00
7:15 AM,44.6,44.6,100,30.22,7.0,Calm,Calm,-,N/A,,Clear,0,2012-10-12 11:15:00
7:35 AM,44.6,44.6,100,30.22,4.0,Calm,Calm,-,N/A,,Clear,0,2012-10-12 11:35:00
7:55 AM,46.4,46.4,100,30.23,4.0,Calm,Calm,-,N/A,,Clear,0,2012-10-12 11:55:00
8:35 AM,51.8,51.8,100,30.24,5.0,Calm,Calm,-,N/A,,Clear,0,2012-10-12 12:35:00
8:55 AM,53.6,53.6,100,30.24,5.0,Calm,Calm,-,N/A,,Clear,0,2012-10-12 12:55:00
9:15 AM,57.2,53.6,88,30.24,7.0,Calm,Calm,-,N/A,,Clear,0,2012-10-12 13:15:00
9:35 AM,60.8,53.6,77,30.24,7.0,Calm,Calm,-,N/A,,Clear,0,2012-10-12 13:35:00
9:55 AM,62.6,55.4,77,30.24,5.0,Calm,Calm,-,N/A,,Haze,0,2012-10-12 13:55:00
10:15 AM,64.4,53.6,68,30.25,5.0,NW,3.5,-,N/A,,Haze,310,2012-10-12 14:15:00
10:55 AM,68.0,53.6,60,30.25,7.0,Calm,Calm,-,N/A,,Clear,0,2012-10-12 14:55:00
11:15 AM,68.0,53.6,60,30.25,7.0,Calm,Calm,-,N/A,,Clear,0,2012-10-12 15:15:00
11:35 AM,69.8,53.6,56,30.25,7.0,West,3.5,-,N/A,,Clear,270,2012-10-12 15:35:00
11:55 AM,69.8,53.6,56,30.23,7.0,Calm,Calm,-,N/A,,Clear,0,2012-10-12 15:55:00
12:15 PM,71.6,53.6,53,30.22,7.0,North,5.8,-,N/A,,Clear,350,2012-10-12 16:15:00
12:35 PM,71.6,53.6,53,30.22,7.0,NW,3.5,-,N/A,,Clear,320,2012-10-12 16:35:00
12:55 PM,73.4,53.6,50,30.21,5.0,North,5.8,-,N/A,,Haze,360,2012-10-12 16:55:00
1:15 PM,71.6,53.6,53,30.20,7.0,Calm,Calm,-,N/A,,Clear,0,2012-10-12 17:15:00
1:55 PM,73.4,53.6,50,30.17,7.0,North,3.5,-,N/A,,Clear,350,2012-10-12 17:55:00
2:55 PM,75.2,53.6,47,30.16,7.0,Calm,Calm,-,N/A,,Clear,0,2012-10-12 18:55:00
3:15 PM,75.2,53.6,47,30.16,5.0,Calm,Calm,-,N/A,,Haze,0,2012-10-12 19:15:00
3:35 PM,75.2,53.6,47,30.16,7.0,North,4.6,-,N/A,,Clear,360,2012-10-12 19:35:00
4:15 PM,75.2,53.6,47,30.16,5.0,North,3.5,-,N/A,,Haze,10,2012-10-12 20:15:00
4:35 PM,75.2,53.6,47,30.16,7.0,Calm,Calm,-,N/A,,Clear,0,2012-10-12 20:35:00
4:55 PM,75.2,53.6,47,30.17,5.0,West,3.5,-,N/A,,Haze,280,2012-10-12 20:55:00
5:15 PM,75.2,55.4,50,30.17,7.0,Calm,Calm,-,N/A,,Clear,0,2012-10-12 21:15:00
5:35 PM,73.4,55.4,53,30.18,7.0,Calm,Calm,-,N/A,,Clear,0,2012-10-12 21:35:00
5:55 PM,69.8,57.2,64,30.18,7.0,Calm,Calm,-,N/A,,Clear,0,2012-10-12 21:55:00
6:15 PM,66.2,59.0,78,30.19,7.0,Calm,Calm,-,N/A,,Clear,0,2012-10-12 22:15:00
6:55 PM,62.6,59.0,88,30.20,7.0,Calm,Calm,-,N/A,,Clear,0,2012-10-12 22:55:00
7:15 PM,60.8,59.0,94,30.21,7.0,Calm,Calm,-,N/A,,Clear,0,2012-10-12 23:15:00
7:35 PM,60.8,59.0,94,30.21,7.0,Calm,Calm,-,N/A,,Clear,0,2012-10-12 23:35:00
7:55 PM,59.0,59.0,100,30.22,7.0,Calm,Calm,-,N/A,,Clear,0,2012-10-12 23:55:00
8:15 PM,59.0,59.0,100,30.22,7.0,Calm,Calm,-,N/A,,Clear,0,2012-10-13 00:15:00
8:35 PM,59.0,59.0,100,30.23,7.0,Calm,Calm,-,N/A,,Clear,0,2012-10-13 00:35:00
8:55 PM,59.0,59.0,100,30.24,7.0,Calm,Calm,-,N/A,,Clear,0,2012-10-13 00:55:00
9:15 PM,57.2,57.2,100,30.24,5.0,Calm,Calm,-,N/A,,Clear,0,2012-10-13 01:15:00
9:35 PM,57.2,57.2,100,30.25,7.0,Calm,Calm,-,N/A,,Clear,0,2012-10-13 01:35:00
10:15 PM,55.4,55.4,100,30.26,7.0,Calm,Calm,-,N/A,,Clear,0,2012-10-13 02:15:00
10:35 PM,55.4,55.4,100,30.27,7.0,Calm,Calm,-,N/A,,Clear,0,2012-10-13 02:35:00
10:55 PM,55.4,55.4,100,30.27,7.0,Calm,Calm,-,N/A,,Clear,0,2012-10-13 02:55:00
11:15 PM,55.4,55.4,100,30.28,5.0,Calm,Calm,-,N/A,,Clear,0,2012-10-13 03:15:00
11:35 PM,53.6,53.6,100,30.28,5.0,Calm,Calm,-,N/A,,Clear,0,2012-10-13 03:35:00